Tracking 19246 objects as of 20-Aug-2018
HD Live streaming from Space Station
objects crossing your sky now

BPA 3/SL-24 R/B

Track BPA 3/SL-24 R/B now!
10-day predictions


NORAD ID: 39448
Int'l Code: 2013-066AJ
Perigee: 598.7 km
Apogee: 1,615.0 km
Inclination: 97.7 °
Period: 107.3 minutes
Semi major axis: 7477 km
RCS: Unknown
Launch date: November 21, 2013
Source: Commonwealth of Independent States (former USSR) (CIS)
Launch site: Orenburg, Russia (OREN)

Note: This is a ROCKET BODY
aabbcc
Your satellite tracking list
Your tracking list is empty




NASA's NSSDC Master Catalog

Two Line Element Set (TLE):
1 39448U 13066AJ  18231.60406914 -.00000044 +00000-0 -19096-5 0  9999
2 39448 097.6977 292.0636 0679514 324.4588 031.3024 13.42577720232254
Source of the keplerian elements: AFSPC